Location: Dortmund
(51.5019°N, 7.6520°E)
Time: 14:38:00
(UTC+01:00)

ISS - Pass Details

Date: 04 January 2018
Orbit: 402 x 407 km, 51.6° (Epoch: 18 January)

Event Time Altitude Azimuth Distance (km) Brightness Sun altitude
Exits shadow 06:53:39 30° 267° (W) 755 -3.0 -14.7°
Maximum altitude 06:55:08 87° 350° (N) 413 -3.9 -14.5°
Drops below altitude 10° 06:58:26 10° 85° (E) 1,472 0.1 -14.0°
Sets 07:00:32 0° 86° (E) 2,334 1.3 -13.7°
